Probability
0 0 0 0 0 0 0 0 0 0 0 0 0 1 2 1 3 7 14 21 27 31 32 29 27 29 30 29 25 23 24 29 35 35 32 29 22 13 8 6 5 2 1 0
0 0 0 0 0 0 0 0 0 0 0 0 0 1 2 1 2 6 13 18 23 29 31 29 29 30 31 30 28 26 28 33 37 39 38 33 26 18 12 9 7 4 1 0
0 0 0 0 0 0 0 0 0 0 0 0 0 1 1 1 1 4 9 13 17 24 28 29 30 31 30 29 27 27 30 35 39 41 40 33 27 21 15 11 9 7 3 1
0 0 0 0 0 0 0 0 0 0 0 0 0 0 0 0 0 2 6 9 13 19 24 28 30 29 27 24 22 23 28 32 35 37 34 28 23 20 15 12 12 10 6 4
0 0 0 0 0 0 0 0 0 0 0 0 0 0 0 0 0 2 5 7 10 15 20 25 28 28 24 20 17 18 22 25 28 29 28 24 21 20 18 15 15 13 9 6
0 0 0 0 0 0 0 0 0 0 0 0 0 0 0 0 0 1 4 5 7 11 16 21 25 27 24 19 16 17 18 19 21 24 25 23 21 21 20 17 16 14 10 8
0 0 0 0 0 0 0 0 0 0 0 0 0 0 0 0 0 1 4 6 6 8 12 17 21 24 24 20 18 18 18 16 18 21 23 22 20 19 19 18 16 15 11 8
0 0 0 0 0 0 0 0 0 0 0 0 0 0 0 0 0 1 4 7 7 6 9 13 16 19 20 18 17 18 17 16 15 17 19 19 17 18 19 19 17 15 12 9
0 0 0 0 0 0 0 0 0 0 0 0 0 0 0 0 0 1 5 8 7 5 5 8 10 12 13 13 14 15 14 14 14 15 16 15 15 17 18 18 18 15 12 8
0 0 0 0 0 0 0 0 0 0 0 0 0 0 0 0 1 3 6 9 8 5 3 4 4 5 6 9 11 12 11 11 12 12 12 11 14 16 17 17 17 15 11 8
0 0 0 0 0 0 0 0 0 0 0 0 0 0 0 0 1 2 5 7 7 5 3 1 1 1 3 6 9 10 9 7 7 8 8 9 12 14 14 14 14 12 10 8
0 0 0 0 0 1 0 0 0 0 0 0 0 0 0 0 0 1 2 4 6 6 4 2 1 1 2 4 7 7 6 4 3 3 4 7 10 12 12 11 11 10 9 8
0 0 0 0 0 0 0 0 0 0 0 0 0 0 0 0 0 0 1 3 5 6 5 5 3 3 2 3 5 5 4 3 1 1 2 5 8 10 11 11 10 10 9 9
0 0 0 0 0 0 0 0 0 0 0 0 0 0 0 0 0 0 0 2 4 6 8 9 7 6 4 3 3 4 3 2 1 0 1 4 8 10 11 10 10 10 9 9
0 0 0 0 0 0 0 0 0 0 0 0 0 1 1 0 0 0 0 2 5 7 10 11 9 8 7 5 5 5 4 3 3 2 2 4 8 10 11 10 9 9 9 9
0 0 0 0 0 0 0 0 0 0 1 1 1 1 1 1 0 1 1 3 5 7 9 10 9 9 9 9 9 8 8 7 6 5 3 4 6 8 9 10 9 8 8 8
1 0 0 0 0 0 0 0 0 0 1 2 2 2 2 2 2 2 4 4 4 5 8 9 9 9 9 10 12 11 11 11 10 8 6 5 5 7 8 9 9 9 8 7
2 1 0 0 0 0 0 0 0 0 1 2 4 4 3 4 4 4 5 5 4 5 7 9 9 8 9 9 11 12 13 13 12 11 10 9 9 9 9 9 11 12 10 8
4 2 0 0 0 0 0 1 1 1 2 2 3 3 4 5 4 5 6 7 7 6 8 10 10 8 10 11 13 14 14 13 13 13 12 12 13 13 12 13 15 16 13 10
2 1 0 0 0 0 1 1 1 1 2 2 2 2 3 5 6 6 9 11 11 9 10 12 12 12 15 17 20 20 18 15 14 14 14 14 14 14 14 16 18 20 19 16
1 0 0 0 0 1 1 1 1 3 4 4 3 3 4 7 10 9 10 14 14 11 12 14 16 19 24 28 29 28 24 20 18 18 18 17 17 16 16 21 25 26 24 22
0 0 0 0 0 1 3 3 3 5 5 5 5 4 6 9 11 11 12 15 14 11 11 13 18 24 31 35 36 34 30 25 22 21 21 20 21 19 21 28 33 32 28 25
0 0 0 0 1 2 3 4 4 4 3 3 3 4 6 9 11 12 13 15 14 10 9 12 17 24 30 35 37 36 34 31 27 25 24 24 25 25 26 32 35 32 28 23
0 0 0 1 1 1 1 2 2 1 1 1 1 2 4 6 9 11 13 15 15 13 13 15 18 23 29 33 34 34 34 34 32 30 30 31 29 28 30 32 31 26 21 18
0 0 0 0 0 0 0 1 1 0 0 0 0 1 2 3 4 8 11 14 16 17 18 19 21 25 30 33 34 35 36 37 35 34 34 34 31 30 32 31 25 17 12 10
0 0 0 0 0 0 1 2 2 1 0 0 0 1 1 1 2 5 10 14 18 20 20 20 23 27 30 32 35 39 41 41 38 35 33 32 31 31 32 30 21 11 5 5
Wind_Speed
13 13 15 14 14 8 5 8 7 4 2 6 9 7 6 8 10 10 10 11 12 11 11 12 13 12 12 12 13 13 12 12 10 8 8 8 7 6 5 5 6 6 6 5
12 17 15 10 9 10 10 10 8 5 3 6 6 7 5 7 10 10 10 11 12 12 12 13 14 14 14 14 14 14 13 12 11 9 7 6 6 6 6 5 6 7 6 6
18 10 12 12 12 12 12 11 8 5 3 6 7 9 8 7 8 9 10 10 11 13 14 14 15 15 15 15 15 13 13 13 12 11 8 7 6 6 6 7 6 7 7 6
15 9 11 14 14 13 12 8 7 7 8 6 6 8 7 7 9 10 11 11 11 12 13 14 16 16 16 15 14 14 14 13 13 12 11 12 9 8 8 7 6 7 7 6
12 12 13 14 13 12 8 3 7 8 9 8 8 9 4 7 9 10 11 11 11 12 13 14 15 16 15 15 14 14 14 13 13 13 12 12 10 8 7 8 8 7 7 6
10 9 11 11 10 10 7 6 6 8 10 11 7 9 6 4 6 6 9 11 11 11 12 13 14 14 14 14 13 14 15 14 14 14 13 13 12 11 10 10 9 8 6 6
12 12 10 9 11 12 12 10 8 9 9 8 3 7 5 1 2 4 8 10 11 11 12 12 14 14 14 15 15 15 16 15 15 15 14 13 12 12 12 11 10 8 7 7
13 13 13 11 12 10 13 13 9 7 7 5 5 7 3 2 1 3 6 9 10 11 12 12 14 14 15 15 15 16 16 15 15 15 14 13 13 10 9 10 9 9 7 7
10 9 8 8 9 10 11 12 9 9 9 8 6 5 3 3 4 5 7 9 10 11 12 12 13 14 14 15 15 16 16 15 15 15 14 13 13 11 10 11 9 8 6 7
6 7 9 8 8 8 9 8 7 9 8 10 8 7 3 2 2 5 7 9 10 11 11 12 12 12 12 13 14 15 15 15 14 14 13 12 12 12 10 10 10 9 8 8
9 8 9 10 11 11 10 10 9 8 8 9 8 3 4 2 1 4 6 8 10 11 11 11 11 11 11 12 14 14 14 14 14 14 13 13 13 12 11 10 11 10 9 10
8 8 8 9 4 4 9 10 10 9 9 9 9 3 6 2 1 3 4 7 9 10 11 11 11 11 11 12 13 14 14 14 14 14 13 13 13 12 12 11 11 11 10 10
7 7 8 9 9 9 10 10 10 9 9 9 11 4 6 3 2 2 4 6 8 10 11 11 11 11 12 13 13 13 14 14 14 14 14 13 13 13 12 12 11 11 11 10
5 7 10 9 5 7 10 11 11 11 11 11 12 9 3 2 2 2 4 6 8 10 11 12 12 12 12 13 13 14 13 14 14 13 13 13 13 13 12 12 12 11 11 11
6 8 9 8 7 7 10 11 13 15 14 14 11 10 5 3 3 2 4 6 8 10 12 13 13 13 13 13 14 14 14 14 14 14 13 13 13 12 12 12 12 12 11 11
5 6 8 10 10 10 11 12 12 13 13 13 12 9 4 3 3 3 4 6 8 10 12 14 14 14 14 15 15 15 14 14 14 14 14 13 13 13 13 12 12 12 11 11
6 6 8 9 8 9 13 11 11 11 10 10 11 6 3 4 3 3 4 6 7 8 10 13 14 14 14 15 15 15 15 14 14 14 14 14 14 14 14 13 13 13 12 12
6 7 6 7 6 11 4 1 5 7 8 7 6 3 4 4 4 3 2 3 4 5 7 10 12 13 13 14 14 14 15 15 15 15 14 14 14 14 13 13 13 12 11 11
5 7 7 7 9 8 4 2 3 5 5 3 3 3 2 3 2 2 1 1 2 3 5 6 9 12 12 13 14 15 15 16 15 15 15 15 14 14 14 14 13 12 11 11
6 7 8 8 9 7 2 3 1 5 5 2 1 2 3 4 4 2 5 3 2 2 3 5 7 10 11 12 14 15 15 15 15 15 14 14 14 14 14 14 13 12 11 11
8 8 10 10 8 3 5 1 3 6 2 4 3 3 4 3 4 5 5 4 3 1 2 4 7 8 9 11 13 14 14 14 14 13 13 13 13 13 13 12 11 11 11 11
6 6 7 6 7 2 5 1 1 4 5 4 4 4 4 3 3 4 4 4 3 1 1 4 6 7 8 10 12 12 12 11 11 11 11 12 12 12 11 11 11 11 11 11
3 3 2 1 1 5 3 3 3 2 3 4 4 4 4 3 4 4 4 5 4 1 2 4 6 7 7 9 10 11 10 10 10 11 11 10 11 11 10 11 11 10 10 9
2 1 2 1 2 3 3 3 3 2 3 3 4 4 3 4 4 4 4 5 4 2 1 3 6 7 7 7 8 7 8 9 10 10 10 9 9 8 8 6 7 8 8 8
1 2 2 2 1 1 2 3 3 3 3 3 4 4 4 3 3 4 4 4 4 3 2 2 4 6 6 6 6 6 6 8 9 9 8 8 8 7 7 6 4 5 5 5
2 2 3 1 1 1 2 3 3 3 4 4 4 5 5 4 4 5 5 5 5 4 4 5 6 6 6 6 5 4 5 6 7 7 7 6 6 6 6 6 5 3 2 4
Wind_Direction
191 209 213 210 219 250 253 249 242 235 200 243 248 246 219 198 205 204 196 192 194 194 184 179 176 173 171 172 171 171 171 170 168 167 172 170 170 169 168 169 158 167 172 173
191 218 219 217 216 232 237 242 240 217 202 252 258 248 217 205 209 208 203 200 195 188 181 178 176 175 175 175 174 175 178 176 176 172 172 173 166 169 167 165 159 172 173 175
208 208 204 207 209 222 231 238 242 248 239 229 250 235 204 197 206 207 209 208 201 193 189 183 182 181 181 179 179 178 178 178 177 170 168 162 159 169 169 170 168 173 172 172
221 202 197 208 214 223 228 229 250 251 247 229 239 265 204 196 206 210 209 205 201 196 193 187 184 184 184 182 180 179 177 176 174 173 176 175 178 178 174 172 163 166 169 169
206 204 203 213 215 219 237 234 245 249 250 257 230 262 232 188 221 216 204 202 198 194 193 189 186 186 185 182 180 178 176 178 176 181 181 185 185 179 168 166 159 169 166 173
211 200 218 223 218 219 213 211 221 236 245 245 246 264 261 219 235 216 195 194 191 189 190 188 185 183 182 181 180 178 178 181 180 184 186 190 185 178 170 170 166 174 168 174
206 205 207 217 211 201 211 220 220 219 224 237 200 257 273 314 258 223 198 191 185 184 184 185 184 183 181 182 182 180 180 182 183 186 186 187 184 181 178 176 175 179 175 174
199 201 198 205 219 206 211 228 241 250 247 245 199 247 288 54 190 197 193 188 184 184 182 184 186 185 185 185 184 182 182 184 184 185 183 182 182 185 182 183 178 182 182 171
204 193 172 199 215 226 209 227 251 261 265 264 247 248 243 166 195 194 185 182 184 185 183 184 185 187 189 186 186 185 183 183 184 185 181 182 186 188 180 176 182 180 176 164
219 203 178 179 199 212 245 222 222 244 257 259 253 251 260 183 196 185 186 185 183 182 183 184 185 187 188 185 184 184 184 184 183 182 181 180 184 184 178 180 180 175 172 167
223 220 185 193 212 205 201 216 234 245 258 267 267 261 53 4 219 188 182 182 181 182 182 181 181 181 182 184 182 180 181 180 180 180 180 179 181 179 179 181 181 178 176 175
214 230 215 207 198 274 236 234 230 241 244 253 273 281 85 74 148 180 174 173 178 182 180 176 172 171 177 181 180 178 179 179 179 176 178 180 178 178 182 184 184 181 180 182
184 218 216 201 197 204 225 226 234 245 256 251 256 250 115 124 149 168 176 173 176 182 180 174 171 172 177 179 178 177 179 179 177 175 178 178 178 181 186 186 184 184 183 183
214 221 243 247 245 204 214 222 225 234 243 249 253 265 232 233 245 209 195 187 184 183 182 179 176 177 178 178 176 177 179 178 176 178 180 180 182 183 186 186 184 185 185 185
220 226 235 255 264 251 241 236 230 234 248 261 266 268 285 311 302 254 209 197 192 187 186 185 182 180 179 178 179 180 180 178 178 179 182 183 183 183 185 185 185 185 187 190
217 241 239 242 242 243 245 244 241 240 248 255 264 270 304 320 293 247 220 210 201 195 192 189 187 183 182 182 182 181 181 180 180 183 183 183 183 183 186 186 185 186 190 195
202 225 238 241 231 241 240 236 238 239 247 257 261 276 312 300 295 271 237 224 214 207 199 193 191 189 187 186 184 182 180 178 182 186 185 182 184 186 188 188 186 188 191 194
221 228 240 248 231 237 232 233 249 247 249 260 274 292 305 308 314 302 266 233 226 217 208 199 195 191 189 187 185 183 179 180 185 187 187 185 186 187 188 189 190 191 192 195
227 227 236 240 234 236 198 193 240 242 251 278 266 275 303 324 257 185 55 295 251 234 219 208 201 193 188 187 183 183 183 184 188 190 190 188 188 188 189 191 192 192 195 198
197 225 238 233 241 240 143 97 307 250 221 57 315 293 292 278 256 87 41 4 329 271 221 203 196 189 184 185 182 184 186 187 192 193 192 189 190 192 193 194 194 193 196 202
193 208 229 235 240 238 69 73 236 236 94 28 350 336 314 313 331 346 341 337 331 304 222 191 185 181 179 178 179 186 188 191 194 193 191 190 191 195 197 194 193 193 196 201
221 219 219 230 234 200 61 316 323 22 14 353 356 359 356 359 347 347 353 348 334 301 201 174 169 170 168 170 175 183 190 190 188 188 189 191 193 197 194 192 192 194 197 199
245 297 284 274 38 61 38 19 24 6 352 352 354 358 360 356 358 0 8 359 346 321 168 163 157 156 159 167 176 185 188 185 182 183 186 188 190 196 193 189 189 191 195 203
167 270 236 191 130 82 51 39 35 33 20 5 4 6 9 11 6 11 18 8 358 11 115 153 153 153 155 163 173 182 178 178 180 182 183 183 182 182 183 188 192 194 194 201
286 239 229 212 119 61 70 34 20 27 28 22 16 20 22 25 23 26 28 20 19 31 59 122 139 142 142 149 160 170 167 169 175 177 175 175 174 173 170 176 188 200 198 202
263 268 267 302 19 324 4 14 25 42 33 27 29 37 36 41 45 49 46 39 40 49 63 87 103 112 119 123 128 136 146 155 160 162 167 171 171 167 171 168 163 89 71 97